CW5071 Weather Reports


time (UTC)temp
C
wind
direction
speed
KPH
gust
KPH
rain 1hr
cm
rain 24hr
cm
rain mn
cm
humidity
%
barometer
mb
20260906165036 37 63 0.0 0.0 0.00 0.00 0.00 32 1014.9
20260906164536 37 63 0.0 0.0 0.00 0.00 0.00 33 1014.9
20260906164022 36 79 0.0 0.0 0.00 0.00 0.00 33 1015.1
20260906163522 36 79 0.0 0.0 0.00 0.00 0.00 38 1015.1
20260906163022 36 79 0.0 0.0 0.00 0.00 0.00 34 1015.1
20260906162522 36 79 0.0 0.0 0.00 0.00 0.00 33 1015.2
20260906162023 36 79 1.6 0.0 0.00 0.00 0.00 34 1015.2
20260906161524 36 79 1.6 0.0 0.00 0.00 0.00 35 1015.2
20260906161027 35 91 0.0 0.0 0.00 0.00 0.00 36 1015.2
20260906160530 35 91 0.0 0.0 0.00 0.00 0.00 37 1015.2
20260906160032 35 91 0.0 0.0 0.00 0.00 0.00 36 1015.2
20260906155534 35 91 0.0 0.0 0.00 0.00 0.00 37 1015.3
20260906155034 35 91 0.0 0.0 0.00 0.00 0.00 37 1015.3
20260906154534 35 91 0.0 0.0 0.00 0.00 0.00 38 1015.3
20260906154019 34 169 0.0 0.0 0.00 0.00 0.00 39 1015.3
20260906153520 34 169 0.0 0.0 0.00 0.00 0.00 40 1015.3
20260906153020 33 169 0.0 0.0 0.00 0.00 0.00 38 1015.3
20260906152520 33 175 0.0 0.0 0.00 0.00 0.00 41 1015.3
20260906152021 32 175 0.0 0.0 0.00 0.00 0.00 42 1015.3
20260906151521 32 177 0.0 0.0 0.00 0.00 0.00 41 1015.3
20260906151024 32 177 0.0 0.0 0.00 0.00 0.00 44 1015.2
20260906150527 31 177 0.0 0.0 0.00 0.00 0.00 44 1015.2
20260906150028 31 177 0.0 0.0 0.00 0.00 0.00 47 1015.2
20260906145527 30 205 0.0 0.0 0.00 0.00 0.00 52 1015.2
20260906145031 30 205 0.0 0.0 0.00 0.00 0.00 55 1015.2
20260906144532 29 205 0.0 0.0 0.00 0.00 0.00 56 1015.2
20260906144033 28 205 0.0 0.0 0.00 0.00 0.00 58 1015.5
20260906143537 28 205 0.0 0.0 0.00 0.00 0.00 62 1015.5
20260906143018 27 205 0.0 0.0 0.00 0.00 0.00 62 1015.5
20260906142521 27 205 0.0 0.0 0.00 0.00 0.00 63 1015.7
20260906142021 26 205 0.0 0.0 0.00 0.00 0.00 67 1015.7
20260906141526 26 205 0.0 0.0 0.00 0.00 0.00 69 1015.7
20260906141027 25 205 0.0 0.0 0.00 0.00 0.00 73 1015.5
20260906140531 25 205 0.0 0.0 0.00 0.00 0.00 78 1015.5
20260906140032 25 205 0.0 0.0 0.00 0.00 0.00 81 1015.5
20260906135532 24 205 0.0 0.0 0.00 0.00 0.00 83 1015.5
20260906135036 23 205 0.0 0.0 0.00 0.00 0.00 84 1015.5
20260906134536 23 205 0.0 0.0 0.00 0.00 0.00 86 1015.5
20260906134020 23 205 0.0 0.0 0.00 0.00 0.00 87 1015.5
20260906133522 23 205 0.0 0.0 0.00 0.00 0.00 88 1015.5
20260906133024 23 205 0.0 0.0 0.00 0.00 0.00 89 1015.5
20260906132523 22 205 0.0 0.0 0.00 0.00 0.00 89 1015.5
20260906132023 22 205 0.0 0.0 0.00 0.00 0.00 89 1015.5
20260906131524 22 205 0.0 0.0 0.00 0.00 0.00 89 1015.5
20260906131026 22 205 0.0 0.0 0.00 0.00 0.00 89 1015.2
20260906130526 21 205 0.0 0.0 0.00 0.00 0.00 89 1015.2
20260906130027 21 205 0.0 0.0 0.00 0.00 0.00 89 1015.2
20260906125527 21 205 0.0 0.0 0.00 0.00 0.00 89 1015.2
20260906125027 21 205 0.0 0.0 0.00 0.00 0.00 89 1015.2
20260906124527 21 205 0.0 0.0 0.00 0.00 0.00 89 1015.2
20260906124027 21 205 0.0 0.0 0.00 0.00 0.00 88 1014.9
20260906123535 21 205 0.0 0.0 0.00 0.00 0.00 88 1014.9
20260906123017 21 205 0.0 0.0 0.00 0.00 0.00 88 1014.9
20260906122522 21 67 0.0 0.0 0.00 0.00 0.00 88 1014.8
20260906122022 21 67 0.0 0.0 0.00 0.00 0.00 88 1014.8
20260906121524 21 67 0.0 0.0 0.00 0.00 0.00 88 1014.8
20260906121024 21 67 0.0 0.0 0.00 0.00 0.00 88 1014.5
20260906120524 21 67 0.0 0.0 0.00 0.00 0.00 88 1014.5
20260906120024 21 67 0.0 0.0 0.00 0.00 0.00 88 1014.5
20260906115524 20 67 0.0 0.0 0.00 0.00 0.00 87 1014.2
20260906115026 20 67 0.0 0.0 0.00 0.00 0.00 87 1014.2
20260906114527 21 67 0.0 0.0 0.00 0.00 0.00 87 1014.2
20260906114032 21 67 0.0 0.0 0.00 0.00 0.00 87 1014.1
20260906113536 21 67 0.0 0.0 0.00 0.00 0.00 87 1014.1
20260906113036 21 67 0.0 0.0 0.00 0.00 0.00 87 1014.1
20260906112536 21 67 0.0 0.0 0.00 0.00 0.00 87 1014.1
20260906112036 21 67 0.0 0.0 0.00 0.00 0.00 87 1014.1
20260906111538 21 67 0.0 0.0 0.00 0.00 0.00 87 1014.1
20260906111019 21 67 0.0 0.0 0.00 0.00 0.00 86 1013.9
20260906110520 21 67 0.0 0.0 0.00 0.00 0.00 86 1013.9
20260906110020 21 67 0.0 0.0 0.00 0.00 0.00 86 1013.9
20260906105520 21 67 0.0 0.0 0.00 0.00 0.00 86 1013.9
20260906105021 21 67 0.0 0.0 0.00 0.00 0.00 86 1013.9
20260906104520 21 67 0.0 0.0 0.00 0.00 0.00 86 1013.9
20260906104023 21 67 0.0 0.0 0.00 0.00 0.00 86 1013.8
20260906103528 21 67 0.0 0.0 0.00 0.00 0.00 86 1013.8
20260906103032 21 67 0.0 0.0 0.00 0.00 0.00 86 1013.8
20260906102532 21 67 0.0 0.0 0.00 0.00 0.00 86 1013.8
20260906102036 21 67 0.0 0.0 0.00 0.00 0.00 86 1013.8
20260906101519 21 67 0.0 0.0 0.00 0.00 0.00 86 1013.8
20260906101022 21 67 0.0 0.0 0.00 0.00 0.00 85 1013.7
20260906100523 21 67 0.0 0.0 0.00 0.00 0.00 85 1013.7
20260906100022 21 67 0.0 0.0 0.00 0.00 0.00 85 1013.7
20260906095523 21 67 0.0 0.0 0.00 0.00 0.00 85 1013.5
20260906095023 21 67 0.0 0.0 0.00 0.00 0.00 85 1013.5
20260906094523 21 67 0.0 0.0 0.00 0.00 0.00 85 1013.5
20260906094025 21 67 0.0 0.0 0.00 0.00 0.00 85 1013.4
20260906093529 21 67 0.0 0.0 0.00 0.00 0.00 85 1013.4
20260906093029 21 67 0.0 0.0 0.00 0.00 0.00 84 1013.4
20260906092530 21 67 0.0 0.0 0.00 0.00 0.00 84 1013.3
20260906092037 21 67 0.0 0.0 0.00 0.00 0.00 84 1013.3
20260906091538 21 67 0.0 0.0 0.00 0.00 0.00 84 1013.3
20260906091038 21 67 0.0 0.0 0.00 0.00 0.00 84 1013.2
20260906090537 21 67 0.0 0.0 0.00 0.00 0.00 84 1013.2
20260906090037 21 67 0.0 0.0 0.00 0.00 0.00 83 1013.2
20260906085537 21 67 0.0 0.0 0.00 0.00 0.00 83 1013.2
20260906085019 21 67 0.0 0.0 0.00 0.00 0.00 83 1013.2
20260906084519 21 67 0.0 0.0 0.00 0.00 0.00 83 1013.2
20260906084019 21 67 0.0 0.0 0.00 0.00 0.00 83 1013.2
20260906083523 22 67 0.0 0.0 0.00 0.00 0.00 82 1013.2
20260906083024 22 67 0.0 0.0 0.00 0.00 0.00 82 1013.2
20260906082527 22 67 0.0 0.0 0.00 0.00 0.00 82 1013.2
20260906082027 22 67 0.0 0.0 0.00 0.00 0.00 82 1013.2
20260906081528 22 67 0.0 0.0 0.00 0.00 0.00 82 1013.2
20260906081028 22 67 0.0 0.0 0.00 0.00 0.00 82 1013.2
20260906080528 22 67 0.0 0.0 0.00 0.00 0.00 81 1013.2
20260906080029 22 67 0.0 0.0 0.00 0.00 0.00 81 1013.2
20260906075528 22 67 0.0 0.0 0.00 0.00 0.00 81 1013.2
20260906075035 22 67 0.0 0.0 0.00 0.00 0.00 81 1013.2
20260906074536 22 67 0.0 0.0 0.00 0.00 0.00 80 1013.2
20260906074037 22 67 0.0 0.0 0.00 0.00 0.00 80 1013.1
20260906073521 22 67 0.0 0.0 0.00 0.00 0.00 80 1013.1
20260906073021 22 67 0.0 0.0 0.00 0.00 0.00 79 1013.1
20260906072522 22 67 0.0 0.0 0.00 0.00 0.00 79 1013.2
20260906072023 22 67 0.0 0.0 0.00 0.00 0.00 79 1013.2
20260906071524 22 67 0.0 0.0 0.00 0.00 0.00 79 1013.2
20260906071027 22 67 0.0 0.0 0.00 0.00 0.00 79 1013.3
20260906070528 22 67 0.0 0.0 0.00 0.00 0.00 78 1013.3
20260906070028 22 67 0.0 0.0 0.00 0.00 0.00 78 1013.3
20260906065535 22 67 0.0 0.0 0.00 0.00 0.00 78 1013.4
20260906065019 22 67 0.0 0.0 0.00 0.00 0.00 78 1013.4
20260906064519 22 67 0.0 0.0 0.00 0.00 0.00 78 1013.4
20260906064019 22 67 0.0 0.0 0.00 0.00 0.00 78 1013.6
20260906063525 22 67 0.0 0.0 0.00 0.00 0.00 77 1013.6
20260906063027 22 67 0.0 0.0 0.00 0.00 0.00 77 1013.6
20260906062528 22 67 0.0 0.0 0.00 0.00 0.00 77 1013.4
20260906062029 23 67 0.0 0.0 0.00 0.00 0.00 77 1013.4
20260906061530 23 67 0.0 0.0 0.00 0.00 0.00 76 1013.4
20260906061031 23 67 0.0 0.0 0.00 0.00 0.00 77 1013.3
20260906060532 23 67 0.0 0.0 0.00 0.00 0.00 76 1013.3
20260906060035 23 67 0.0 0.0 0.00 0.00 0.00 77 1013.3
20260906055535 23 67 0.0 0.0 0.00 0.00 0.00 77 1013.2
20260906055035 23 67 0.0 0.0 0.00 0.00 0.00 76 1013.2
20260906054535 23 67 0.0 0.0 0.00 0.00 0.00 76 1013.2
20260906054035 23 67 0.0 0.0 0.00 0.00 0.00 76 1013.1
20260906053519 23 67 0.0 0.0 0.00 0.00 0.00 76 1013.1
20260906053020 23 67 0.0 0.0 0.00 0.00 0.00 76 1013.1
20260906052520 23 67 0.0 0.0 0.00 0.00 0.00 76 1013.1
20260906052022 23 67 0.0 0.0 0.00 0.00 0.00 76 1013.1
20260906051521 23 67 0.0 0.0 0.00 0.00 0.00 75 1013.1
20260906051022 23 67 0.0 0.0 0.00 0.00 0.00 75 1013.1
20260906050534 23 67 0.0 0.0 0.00 0.00 0.00 75 1013.1
20260906050019 23 67 0.0 0.0 0.00 0.00 0.00 75 1013.1
20260906045520 23 67 0.0 0.0 0.00 0.00 0.00 75 1013.1
20260906045021 23 67 0.0 0.0 0.00 0.00 0.00 75 1013.1
20260906044524 23 67 0.0 0.0 0.00 0.00 0.00 75 1013.1
20260906044025 23 67 0.0 0.0 0.00 0.00 0.00 75 1013.2
20260906043526 23 67 0.0 0.0 0.00 0.00 0.00 74 1013.2
20260906043030 23 67 0.0 0.0 0.00 0.00 0.00 74 1013.2
20260906042530 23 67 0.0 0.0 0.00 0.00 0.00 73 1013.1
20260906042030 23 67 0.0 0.0 0.00 0.00 0.00 73 1013.1
20260906041530 24 67 0.0 0.0 0.00 0.00 0.00 72 1013.1
20260906041030 24 67 0.0 0.0 0.00 0.00 0.00 72 1013.2
20260906040529 24 67 0.0 0.0 0.00 0.00 0.00 72 1013.2
20260906040032 24 67 0.0 0.0 0.00 0.00 0.00 72 1013.2
20260906035534 24 67 0.0 0.0 0.00 0.00 0.00 71 1013.2
20260906035038 25 67 0.0 0.0 0.00 0.00 0.00 71 1013.2
20260906034538 25 67 0.0 0.0 0.00 0.00 0.00 70 1013.2
20260906034038 25 67 0.0 0.0 0.00 0.00 0.00 70 1013.2
20260906033538 25 67 0.0 0.0 0.00 0.00 0.00 69 1013.2
20260906033023 25 67 0.0 0.0 0.00 0.00 0.00 69 1013.2
20260906032526 25 67 0.0 0.0 0.00 0.00 0.00 69 1013.1
20260906032026 25 67 0.0 0.0 0.00 0.00 0.00 68 1013.1
20260906031525 25 67 0.0 0.0 0.00 0.00 0.00 67 1013.1
20260906031026 25 67 0.0 0.0 0.00 0.00 0.00 67 1013.2
20260906030527 26 67 0.0 0.0 0.00 0.00 0.00 66 1013.2
20260906030028 26 67 0.0 0.0 0.00 0.00 0.00 65 1013.2
20260906025529 26 67 0.0 0.0 0.00 0.00 0.00 64 1013.0
20260906025034 26 67 0.0 0.0 0.00 0.00 0.00 64 1013.0
20260906024519 26 67 0.0 0.0 0.00 0.00 0.00 64 1013.0
20260906024020 26 67 0.0 0.0 0.00 0.00 0.00 63 1012.8
20260906023525 26 67 0.0 0.0 0.00 0.00 0.00 63 1012.8
20260906023029 27 67 0.0 0.0 0.00 0.00 0.00 61 1012.8
20260906022516 27 67 0.0 0.0 0.00 0.00 0.00 61 1012.7
20260906022022 27 67 0.0 0.0 0.00 0.00 0.00 59 1012.7
20260906021524 27 67 0.0 0.0 0.00 0.00 0.00 59 1012.7
20260906021024 27 67 0.0 0.0 0.00 0.00 0.00 58 1012.7
20260906020524 27 67 0.0 0.0 0.00 0.00 0.00 58 1012.7
20260906020025 27 67 0.0 0.0 0.00 0.00 0.00 57 1012.7
20260906015525 28 67 0.0 0.0 0.00 0.00 0.00 56 1012.4
20260906015026 28 67 0.0 0.0 0.00 0.00 0.00 55 1012.4
20260906014527 28 67 0.0 0.0 0.00 0.00 0.00 55 1012.4
20260906014027 28 67 0.0 0.0 0.00 0.00 0.00 55 1012.4
20260906013527 28 67 0.0 0.0 0.00 0.00 0.00 55 1012.4
20260906013034 28 67 0.0 0.0 0.00 0.00 0.00 56 1012.4
20260906012536 28 67 0.0 0.0 0.00 0.00 0.00 55 1012.2
20260906012036 28 67 0.0 0.0 0.00 0.00 0.00 55 1012.2
20260906011536 28 67 0.0 0.0 0.00 0.00 0.00 53 1012.2
20260906011036 29 67 0.0 0.0 0.00 0.00 0.00 53 1012.2
20260906010538 30 67 0.0 0.0 0.00 0.00 0.00 51 1012.2
20260906010037 30 67 0.0 0.0 0.00 0.00 0.00 49 1012.2
20260906005519 30 67 0.0 0.0 0.00 0.00 0.00 50 1012.1
20260906005020 31 67 0.0 0.0 0.00 0.00 0.00 49 1012.1
20260906004520 31 67 0.0 0.0 0.00 0.00 0.00 48 1012.1
20260906004020 31 67 0.0 0.0 0.00 0.00 0.00 46 1012.3
20260906003521 31 67 0.0 0.0 0.00 0.00 0.00 45 1012.3
20260906003027 31 67 0.0 0.0 0.00 0.00 0.00 46 1012.3
20260906002527 31 67 0.0 0.0 0.00 0.00 0.00 45 1011.9
20260906002029 32 67 0.0 0.0 0.00 0.00 0.00 45 1011.9
20260906001529 32 67 0.0 0.0 0.00 0.00 0.00 45 1011.9
20260906001029 32 67 0.0 0.0 0.00 0.00 0.00 43 1012.0
20260906000529 32 67 0.0 0.0 0.00 0.00 0.00 44 1012.0
20260906000029 33 67 0.0 0.0 0.00 0.00 0.00 40 1012.0
20260905235529 33 67 0.0 0.0 0.00 0.00 0.00 38 1012.0
20260905235035 33 67 0.0 0.0 0.00 0.00 0.00 38 1012.0
20260905234518 33 67 0.0 0.0 0.00 0.00 0.00 35 1012.0
20260905234020 33 67 0.0 0.0 0.00 0.00 0.00 35 1011.8
20260905233522 34 67 0.0 0.0 0.00 0.00 0.00 35 1011.8
20260905233029 35 67 0.0 0.0 0.00 0.00 0.00 34 1011.8
20260905232530 35 67 0.0 0.0 0.00 0.00 0.00 32 1011.8
20260905232030 35 67 0.0 0.0 0.00 0.00 0.00 31 1011.8
20260905231531 35 67 0.0 0.0 0.00 0.00 0.00 31 1011.8
20260905231037 35 67 0.0 0.0 0.00 0.00 0.00 29 1011.9
20260905230522 36 67 0.0 0.0 0.00 0.00 0.00 27 1011.9
20260905230023 36 67 0.0 0.0 0.00 0.00 0.00 27 1011.9
20260905225522 36 67 0.0 0.0 0.00 0.00 0.00 28 1011.7
20260905225024 36 67 0.0 0.0 0.00 0.00 0.00 25 1011.7
20260905224534 36 67 0.0 0.0 0.00 0.00 0.00 26 1011.7
20260905224036 36 67 0.0 0.0 0.00 0.00 0.00 26 1011.7
20260905223521 36 67 0.0 0.0 0.00 0.00 0.00 26 1011.7
20260905223022 36 67 0.0 0.0 0.00 0.00 0.00 26 1011.7
20260905222523 36 67 0.0 0.0 0.00 0.00 0.00 25 1011.8
20260905222023 36 67 0.0 0.0 0.00 0.00 0.00 25 1011.8
20260905221524 36 67 0.0 0.0 0.00 0.00 0.00 24 1011.8
20260905221023 37 67 0.0 0.0 0.00 0.00 0.00 25 1011.7
20260905220523 37 67 0.0 0.0 0.00 0.00 0.00 24 1011.7
20260905220023 37 67 0.0 0.0 0.00 0.00 0.00 25 1011.7
20260905215523 37 67 0.0 0.0 0.00 0.00 0.00 25 1011.9
20260905215023 37 67 0.0 0.0 0.00 0.00 0.00 24 1011.9
20260905214522 37 67 0.0 0.0 0.00 0.00 0.00 23 1011.9
20260905214025 37 67 0.0 0.0 0.00 0.00 0.00 24 1012.0
20260905213527 37 67 0.0 0.0 0.00 0.00 0.00 25 1012.0
20260905213032 37 67 0.0 0.0 0.00 0.00 0.00 23 1012.0
20260905212532 37 67 0.0 0.0 0.00 0.00 0.00 27 1012.2
20260905212032 37 67 0.0 0.0 0.00 0.00 0.00 26 1012.2
20260905211532 37 294 0.0 0.0 0.00 0.00 0.00 26 1012.2
20260905211034 37 294 0.0 0.0 0.00 0.00 0.00 27 1012.4
20260905210534 37 294 0.0 0.0 0.00 0.00 0.00 27 1012.4
20260905210036 37 292 0.0 0.0 0.00 0.00 0.00 27 1012.4
20260905205519 37 291 0.0 0.0 0.00 0.00 0.00 26 1012.7
20260905205022 37 291 0.0 0.0 0.00 0.00 0.00 28 1012.7
20260905204522 37 291 0.0 0.0 0.00 0.00 0.00 28 1012.7
20260905204026 37 291 0.0 0.0 0.00 0.00 0.00 27 1012.9
20260905203526 36 291 0.0 0.0 0.00 0.00 0.00 28 1012.9
20260905203016 36 291 0.0 0.0 0.00 0.00 0.00 28 1012.9
20260905202519 36 291 0.0 0.0 0.00 0.00 0.00 28 1013.2
20260905202019 36 291 0.0 0.0 0.00 0.00 0.00 28 1013.2
20260905201519 37 291 1.6 0.0 0.00 0.00 0.00 28 1013.2
20260905201020 37 291 0.0 0.0 0.00 0.00 0.00 28 1013.2
20260905200521 37 291 0.0 0.0 0.00 0.00 0.00 28 1013.2
20260905200021 37 292 0.0 0.0 0.00 0.00 0.00 28 1013.2
20260905195521 37 291 0.0 0.0 0.00 0.00 0.00 29 1013.2
20260905195022 37 291 0.0 0.0 0.00 0.00 0.00 28 1013.2
20260905194522 37 291 0.0 0.0 0.00 0.00 0.00 28 1013.2
20260905194021 37 201 0.0 0.0 0.00 0.00 0.00 28 1013.5
20260905193522 37 193 0.0 0.0 0.00 0.00 0.00 28 1013.5
20260905193028 37 57 0.0 0.0 0.00 0.00 0.00 28 1013.5
20260905192534 37 19 0.0 0.0 0.00 0.00 0.00 28 1013.8
20260905192019 36 55 1.6 0.0 0.00 0.00 0.00 28 1013.8
20260905191520 36 86 1.6 0.0 0.00 0.00 0.00 29 1013.8
20260905191021 36 68 0.0 0.0 0.00 0.00 0.00 31 1014.1
20260905190522 36 44 0.0 0.0 0.00 0.00 0.00 31 1014.1
20260905190022 36 44 0.0 0.0 0.00 0.00 0.00 31 1014.1
20260905185522 37 44 0.0 0.0 0.00 0.00 0.00 30 1014.2
20260905185022 37 44 0.0 0.0 0.00 0.00 0.00 29 1014.2
20260905184522 37 43 0.0 0.0 0.00 0.00 0.00 28 1014.2
20260905184022 37 43 0.0 0.0 0.00 0.00 0.00 29 1014.2
20260905183522 37 51 0.0 0.0 0.00 0.00 0.00 28 1014.2
20260905183028 37 49 0.0 0.0 0.00 0.00 0.00 28 1014.2
20260905182538 37 62 0.0 0.0 0.00 0.00 0.00 28 1014.7
20260905182038 36 62 0.0 0.0 0.00 0.00 0.00 30 1014.7
20260905181520 36 56 0.0 0.0 0.00 0.00 0.00 33 1014.7
20260905181021 36 288 0.0 0.0 0.00 0.00 0.00 33 1014.7
20260905180524 36 288 0.0 0.0 0.00 0.00 0.00 31 1014.7
20260905180025 37 289 0.0 0.0 0.00 0.00 0.00 30 1014.7
20260905175526 37 290 0.0 0.0 0.00 0.00 0.00 32 1014.8
20260905175028 36 303 0.0 0.0 0.00 0.00 0.00 31 1014.8
20260905174534 36 303 0.0 0.0 0.00 0.00 0.00 32 1014.8
20260905174035 36 296 0.0 0.0 0.00 0.00 0.00 32 1015.2
20260905173520 36 307 0.0 0.0 0.00 0.00 0.00 35 1015.2
20260905173023 36 296 1.6 0.0 0.00 0.00 0.00 33 1015.2
20260905172523 36 293 0.0 0.0 0.00 0.00 0.00 34 1015.2
20260905172024 36 296 0.0 0.0 0.00 0.00 0.00 36 1015.2
20260905171524 35 296 0.0 0.0 0.00 0.00 0.00 36 1015.2
20260905171025 35 296 1.6 0.0 0.00 0.00 0.00 36 1015.2
20260905170526 36 296 1.6 0.0 0.00 0.00 0.00 35 1015.2
20260905170028 36 198 1.6 0.0 0.00 0.00 0.00 35 1015.2
20260905165528 36 198 1.6 0.0 0.00 0.00 0.00 36 1015.5